Weather History for Haines, AK

Change the Weather History Date:

Thursday, December 13, 2012

  Actual Average Record
Temperature  
Mean Temperature 36 °F -  
Max Temperature 39 °F 30 °F 45 °F (1989)
Min Temperature 32 °F 23 °F -3 °F (1979)
Degree Days  
Heating Degree Days 30    
Moisture  
Dew Point 34 °F    
Average Humidity 89    
Maximum Humidity 96    
Minimum Humidity 82    
Precipitation  
Precipitation 0.03 in - - ()
Sea Level Pressure  
Sea Level Pressure 29.29 in    
Wind  
Wind Speed 12 mph (East)    
Max Wind Speed 21 mph    
Max Gust Speed 36 mph    
Visibility 10 miles    
Events Rain    
Averages and records for this station are not official NWS values.
T = Trace of Precipitation, MM = Missing Value Source: NWS Daily Summary

Daily Weather History Graph

Daily Weather History Graph

Search for Another Location

Airport:

Trip Planner

Search our weather history database for the weather conditions in past years. The results will help you decide how hot, cold, wet, or windy it might be!

Date:

Astronomy

Dec. 13, 2012 Rise Set
Actual Time 8:50 AM AKST 3:02 PM AKST
Civil Twilight 7:55 AM AKST 3:57 PM AKST
Nautical Twilight 7:01 AM AKST 4:52 PM AKST
Astronomical Twilight 6:10 AM AKST 5:42 PM AKST
Moon 8:59 AM AKST (12/13) 4:01 PM AKST (12/13)
Length of Visible Light 8h 01m
Length of Day
6h 11m
New Moon, 0% of the Moon is Illuminated
Dec 13
New Moon
Dec 19
First Quarter
Dec 28
Full
Jan 4
Last Quarter
Jan 11
New

Hourly Weather History & Observations

Time (AKST) Temp. Windchill Dew Point Humidity Pressure Visibility Wind Dir Wind Speed Gust Speed Precip Events Conditions
12:18 AM 35.6 °F 25.2 °F 33.8 °F 93% 29.17 in 10.0 mi East 18.4 mph 31.1 mph 0.00 in Rain Light Rain
12:54 AM 36.0 °F 25.0 °F 34.0 °F 93% 29.16 in 10.0 mi East 20.7 mph 35.7 mph 0.01 in Rain Light Rain
1:25 AM 35.6 °F 26.6 °F 33.8 °F 93% 29.16 in 9.0 mi ESE 13.8 mph 28.8 mph 0.00 in Rain Light Rain
1:34 AM 35.6 °F 25.5 °F 33.8 °F 93% 29.16 in 10.0 mi East 17.3 mph 29.9 mph 0.00 in Rain Light Rain
1:54 AM 36.0 °F 27.1 °F 34.0 °F 93% 29.18 in 10.0 mi East 13.8 mph 27.6 mph 0.00 in   Overcast
2:03 AM 37.4 °F 28.9 °F 33.8 °F 87% 29.17 in 10.0 mi ENE 13.8 mph 19.6 mph 0.00 in Rain Light Rain
2:35 AM 37.4 °F 30.3 °F 35.6 °F 93% 29.17 in 8.0 mi East 10.4 mph 16.1 mph 0.01 in Rain Light Rain
2:54 AM 37.0 °F 30.4 °F 35.1 °F 93% 29.18 in 10.0 mi East 9.2 mph 18.4 mph 0.01 in Rain Light Rain
3:21 AM 37.4 °F 29.3 °F 35.6 °F 93% 29.18 in 10.0 mi East 12.7 mph 21.9 mph 0.01 in Rain Light Rain
3:54 AM 37.9 °F 32.1 °F 35.1 °F 89% 29.19 in 10.0 mi East 8.1 mph 17.3 mph 0.01 in   Overcast
4:10 AM 37.4 °F 30.8 °F 35.6 °F 93% 29.18 in 10.0 mi East 9.2 mph 23.0 mph 0.00 in Rain Light Rain
4:40 AM 37.4 °F 32.1 °F 35.6 °F 93% 29.18 in 10.0 mi Variable 6.9 mph - 0.00 in Rain Light Rain
4:54 AM 37.9 °F 30.5 °F 34.0 °F 86% 29.20 in 10.0 mi East 11.5 mph 26.5 mph 0.00 in Rain Light Rain
5:54 AM 37.9 °F 28.5 °F 34.0 °F 86% 29.21 in 10.0 mi ESE 17.3 mph 26.5 mph 0.00 in Rain Light Rain
6:51 AM 37.4 °F 28.5 °F 35.6 °F 93% 29.22 in 10.0 mi East 15.0 mph 28.8 mph 0.00 in   Overcast
6:54 AM 37.9 °F 30.0 °F 35.1 °F 89% 29.23 in 10.0 mi East 12.7 mph 24.2 mph 0.00 in   Overcast
7:01 AM 37.4 °F 28.9 °F 33.8 °F 87% 29.22 in 10.0 mi East 13.8 mph 23.0 mph N/A   Overcast
7:54 AM 37.0 °F 28.1 °F 34.0 °F 89% 29.25 in 10.0 mi East 15.0 mph 23.0 mph 0.00 in Rain Light Rain
8:10 AM 37.4 °F 30.3 °F 35.6 °F 93% 29.24 in 10.0 mi East 10.4 mph 18.4 mph 0.00 in   Overcast
8:54 AM 37.9 °F 30.9 °F 34.0 °F 86% 29.27 in 10.0 mi East 10.4 mph 20.7 mph 0.00 in   Overcast
9:54 AM 37.0 °F 29.8 °F 34.0 °F 89% 29.29 in 10.0 mi ESE 10.4 mph 16.1 mph N/A   Overcast
10:54 AM 37.9 °F 30.9 °F 34.0 °F 86% 29.31 in 10.0 mi East 10.4 mph 19.6 mph N/A   Overcast
11:54 AM 39.0 °F 32.3 °F 34.0 °F 82% 29.32 in 10.0 mi East 10.4 mph 19.6 mph N/A   Mostly Cloudy
12:25 PM 37.4 °F 30.8 °F 33.8 °F 87% 29.33 in 10.0 mi East 9.2 mph 16.1 mph N/A   Overcast
12:34 PM 37.4 °F 31.4 °F 33.8 °F 87% 29.33 in 10.0 mi ESE 8.1 mph - N/A   Overcast
12:54 PM 37.9 °F 32.7 °F 34.0 °F 86% 29.35 in 10.0 mi East 6.9 mph - 0.00 in   Overcast
1:12 PM 37.4 °F 32.1 °F 33.8 °F 87% 29.34 in 10.0 mi ENE 6.9 mph - N/A   Overcast
3:07 PM 37.4 °F 32.1 °F 33.8 °F 87% 29.37 in 10.0 mi East 6.9 mph - 0.00 in   Overcast
3:54 PM 37.0 °F 31.6 °F 33.1 °F 86% 29.39 in 10.0 mi ENE 6.9 mph - 0.00 in   Mostly Cloudy
4:05 PM 37.4 °F 32.1 °F 33.8 °F 87% 29.39 in 10.0 mi East 6.9 mph - N/A   Mostly Cloudy
4:54 PM 37.0 °F 31.6 °F 33.1 °F 86% 29.41 in 10.0 mi East 6.9 mph - N/A   Overcast
5:42 PM 37.4 °F 33.8 °F 33.8 °F 87% 29.42 in 10.0 mi East 4.6 mph - N/A   Overcast
5:54 PM 35.1 °F - 32.0 °F 89% 29.43 in 10.0 mi Calm Calm - 0.00 in   Overcast
6:54 PM 32.0 °F 28.7 °F 30.9 °F 96% 29.44 in 10.0 mi NW 3.5 mph - 0.00 in   Scattered Clouds
7:01 PM 33.8 °F 30.8 °F 30.2 °F 87% 29.43 in 10.0 mi NW 3.5 mph - N/A   Mostly Cloudy
7:54 PM 36.0 °F 30.3 °F 32.0 °F 86% 29.44 in 10.0 mi ENE 6.9 mph - N/A   Overcast
8:54 PM 37.0 °F 33.3 °F 32.0 °F 82% 29.45 in 10.0 mi Variable 4.6 mph - N/A   Overcast
9:54 PM 37.0 °F 30.4 °F 32.0 °F 82% 29.46 in 10.0 mi ENE 9.2 mph - N/A   Overcast
10:54 PM 37.0 °F 30.4 °F 33.1 °F 86% 29.47 in 10.0 mi ESE 9.2 mph 21.9 mph N/A   Overcast
11:54 PM 36.0 °F 27.1 °F 33.1 °F 89% 29.48 in 10.0 mi East 13.8 mph 24.2 mph N/A   Overcast